Location: Gila Cliff Dwellings National Monument
(33.2240°N, 108.2417°W)
Time: 07:07:31
(UTC-06:00)

Cosmos 2322 Rocket - Visible Passes

Search period start: 23 July 2016 00:00
Search period end: 02 August 2016 00:00
Orbit: 834 x 849 km, 71.0° (Epoch: 22 July)

Date Brightness Start Highest point End Pass type
(mag) Time Alt. Az. Time Alt. Az. Time Alt. Az.
23 Jul 3.0 05:20:22 10° S 05:25:47 50° ESE 05:31:11 10° NNE visible
24 Jul 3.1 05:05:27 10° S 05:10:48 47° ESE 05:16:10 10° NNE visible
25 Jul 3.1 04:50:32 10° S 04:55:50 45° ESE 05:01:09 10° NE visible
26 Jul 3.2 04:36:21 14° S 04:40:52 42° ESE 04:46:07 10° NE visible
27 Jul 3.3 04:22:19 19° SSE 04:25:54 39° ESE 04:31:05 10° NE visible
28 Jul 3.3 04:08:13 23° SSE 04:10:56 37° ESE 04:16:03 10° NE visible
28 Jul 3.4 05:50:29 10° WSW 05:55:00 25° WNW 05:59:34 10° N visible
29 Jul 3.4 03:54:04 28° SE 03:55:58 35° ESE 04:01:01 10° NE visible
29 Jul 3.4 05:35:54 12° WSW 05:40:00 26° WNW 05:44:39 10° N visible
30 Jul 3.4 03:39:51 30° SE 03:41:00 33° ESE 03:45:58 10° NE visible
30 Jul 3.3 05:21:43 16° WSW 05:24:59 28° WNW 05:29:44 10° N visible
31 Jul 3.4 03:25:37 31° ESE 03:26:02 31° ESE 03:30:54 10° NE visible
31 Jul 3.2 05:07:26 21° WSW 05:09:59 29° WNW 05:14:49 10° N visible
01 Aug 3.6 03:11:19 29° E 03:11:19 29° E 03:15:51 10° NE visible
01 Aug 3.2 04:53:09 25° W 04:54:59 31° WNW 04:59:54 10° N visible
